Weather in zheleznodorozhnaya stantsiya Gryady

Russia / Novgorod Oblast     58°58′24″N   31°57′41″E
temp.,
°C
wind,
m/s
gust,
m/s
humid.,
%
clouds,
%
prec.,
mm/h
press.,
hPa
HPBL,
m
24 october, sun
sun2400:00+3nnw498997 0.2 1008833
03:00+2nnw5982100 0.4 1011933
06:00+1nnw4994100 0.3 1014808
09:00+1nw498985 0.5 1017620
12:00+2nnw477672 0.1 1021940
15:00+3nw46657 0.3 10221171
18:000wnw2579100 0.0 1024131
21:00−1wnw238260 0.0 102590
25 october, mon
mon2500:00−1sw258529 0.0 1026118
03:000ssw3882100 0.0 1025281
06:00+1s41280100 0.1 1022487
09:00+2ssw51386100 0.5 1021651
12:00+4sw51387100 0.3 1020658
15:00+6sw51284100 0.3 1018881
18:00+5sw51285100 0.1 1018863
21:00+5sw4128096 0.2 1017645
26 october, tue
tue2600:00+3sw4128947 0.0 1017466
03:00+2sw41291100 0.0 1016385
06:00+2ssw41190100 0.0 1015370
09:00+2ssw31089100 0.0 1014371
12:00+4sw4979100 0.0 1014483
15:00+5sw4876100 0.0 1013606
18:00+4ssw31085100 0.0 1013355
21:00+4ssw41085100 0.0 1012374
27 october, wed
wed2700:00+4ssw41086100 0.1 1011410
03:00+5ssw41192100 0.6 1010449
06:00+5sw41193100 0.8 1009467
09:00+6sw41093100 0.9 1009797
12:00+7wsw51183100 0.1 1009834
15:00+8wsw5117795 0.1 10091109
18:00+8w5117881 0.2 10111155
21:00+7w4107894 0.3 1013849
28 october, thu
thu2800:00+6wsw389253 0.0 1014369
03:00+4ssw389797 0.0 1014252
06:00+5s3994100 0.0 1011272
09:00+5s41097100 3.0 1010497
12:00+7ssw3898100 0.9 1009346
15:00+7w1199100 1.6 101044
18:00+7nne2499100 0.4 1013187
21:00+6ne3795100 0.6 1016368